Regional Weather Roundup
Issued by NWS Sterling, VA

Home | Current Version | Previous Version | Graphics & Text | Print | Product List | Glossary On
Versions: 1 2 3 4 5 6 7 8 9 10 11 12 13 14 15 16 17 18 19 20 21 22 23 24 25 26 27
000
ASUS41 KLWX 181410
RWRLWX

REGIONAL WEATHER ROUNDUP
NATIONAL WEATHER SERVICE BALTIMORE MD/WASHINGTON DC
1000 AM EDT FRI APR 18 2014

Note: "FAIR" indicates few or no clouds below 12,000 feet
with no significant weather and/or obstructions to visibility.
 TC=TEMPERATURE CELSIUS

 * =Non NWS site. Station does not report precipitation (e.g. rain,
    snow, etc.), thunder, or fog.

DCZ001-MDZ009-015-VAZ040>042-051-053>054-181500-
WASHINGTON METRO

CITY           SKY/WX    TMP DP  RH WIND       PRES   REMARKS
WASHINGTON NAT CLOUDY    45  32  60 VRB3      30.51S
DULLES         CLOUDY    41  32  70 CALM      30.49S
ANDREWS AFB    CLOUDY    43  32  65 VRB2      30.49F
FT BELVOIR     CLOUDY    44  31  62 VRB1      30.51S
QUANTICO       CLOUDY    42  32  67 CALM      30.52S
COLLEGE PARK*  CLOUDY    43  32  65 E6        30.51R
LEESBURG*      FLURRIES  41  34  75 CALM      30.50S
MANASSAS*      CLOUDY    43  34  70 CALM      30.50F
GAITHERSBURG*  CLOUDY    39  30  70 SE6       30.51S

$$

MDZ006>007-011-014-181500-
BALTIMORE METRO

CITY           SKY/WX    TMP DP  RH WIND       PRES   REMARKS
BWI AIRPORT    CLOUDY    41  31  67 E3        30.50S
MD SCIENCE CTR   N/A     43  32  65 MISG      30.54R
MARTIN STATE   PTSUNNY   43  34  70 NE5       30.53S
ANNAPOLIS      CLOUDY    41  33  73 E9        30.51S
FORT MEADE*    CLOUDY    41  32  70 CALM      30.52S

$$

MDZ012-015-019>023-181500-
MARYLAND EASTERN SHORE

CITY           SKY/WX    TMP DP  RH WIND       PRES   REMARKS
OCEAN CITY     CLOUDY    45  35  68 NE12      30.48F
SALISBURY      CLOUDY    48  34  58 E12       30.48S
BAY BRIDGE AP* PTSUNNY   41  32  70 CALM      30.51S
CAMBRIDGE*     PTSUNNY   45  32  61 E6        30.49S
EASTON*        CLOUDY    45  36  70 CALM      30.53S

$$

MDZ017>025-181500-
SOUTHERN MARYLAND

CITY           SKY/WX    TMP DP  RH WIND       PRES   REMARKS
PATUXENT RIVER CLOUDY    43  33  68 NE8       30.49F
ST INIGOES     CLOUDY    43  34  70 E9        30.49S
LEONARDTOWN*   CLOUDY    41  32  70 E5        30.50F

$$

MDZ003>005-181500-
NORTH CENTRAL MARYLAND

CITY           SKY/WX    TMP DP  RH WIND       PRES   REMARKS
FREDERICK*     PTSUNNY   41  36  81 CALM      30.53S
HAGERSTOWN APT CLOUDY    39  30  70 CALM      30.47S
WESTMINSTER*   CLOUDY    39  30  70 E3        30.47S

$$

MDZ501>502-181500-
WESTERN MARYLAND

CITY           SKY/WX    TMP DP  RH WIND       PRES   REMARKS
OAKLAND*       MOSUNNY   43  28  56 SE7       30.34R
CUMBERLAND*    MOSUNNY   43  34  70 SW5       30.49R

$$

VAZ025>031-181500-
SHENANDOAH VALLEY

CITY           SKY/WX    TMP DP  RH WIND       PRES   REMARKS
WINCHESTER*    CLOUDY    41  34  75 CALM      30.47S
STAUNTON*      CLOUDY    42  34  74 CALM      30.44F

$$

WVZ021-048>050-054>055-181500-
EASTERN WEST VIRGINIA PANHANDLE

CITY           SKY/WX    TMP DP  RH WIND       PRES   REMARKS
MARTINSBURG    CLOUDY    41  31  67 VRB3      30.48R
PETERSBURG*    PTSUNNY   46  38  73 CALM      30.44F

$$

VAZ036>039-050-181500-
CENTRAL FOOTHILLS

CITY           SKY/WX    TMP DP  RH WIND       PRES   REMARKS
CHARLOTTESVILL CLOUDY    42  34  73 CALM      30.46F
CULPEPER*      CLOUDY    45  34  65 N3        30.50F

$$

VAZ055>057-181500-
NORTH AND CENTRAL PIEDMONT

CITY           SKY/WX    TMP DP  RH WIND       PRES   REMARKS
FREDERICKSBRG* CLOUDY    45  34  65 N5        30.50S
STAFFORD*      CLOUDY    43  35  72 NE6       30.54S

$$

NCZ024-NYZ072-PAZ021-071-VAZ022-071-181500-
OTHER REGIONAL OBSERVATIONS

CITY           SKY/WX    TMP DP  RH WIND       PRES   REMARKS
NEW YORK CITY  PTSUNNY   40  27  59 E9        30.55F
PHILADELPHIA   CLOUDY    43  29  57 VRB7      30.52F
PITTSBURGH     CLOUDY    50  28  42 SE7       30.32S
ROANOKE        CLOUDY    41  34  76 SE5       30.47R
RICHMOND       CLOUDY    44  34  67 N8        30.49S
RALEIGH        CLOUDY    47  36  65 NE10      30.43F

$$

ANZ530>537-181500-
MARINE OBSERVATIONS

STATION/POSITION TIME  TEMP    WIND        PRES
                       AIR SEA DIR/SP/G
                 (UTC) (F)     (DEG/KT/KT) (MB)
THOMAS PT LIGHT  1400   40 52   40/  4/  5 1033.7R
BALT KEY BRIDGE  1400   40      70/  7/  8 1033.4R
COVE POINT       1400   41      60/  4/  6 1032.4F
LEWISETTA        1400   43 54   60/  4/  6 1032.1S
SOLOMONS ISLAND  1400      51                N/A
PINEY POINT      1400           70/  4/  5   N/A

$$




USA.gov is the U.S. government's official web portal to all federal, state and local government web resources and services.